Wind_Speed
27 27 27 27 27 27 27 27 27 27 27 28 28 29 29 30 31 30 31 32 32 33 33 34 34 33 33 33 32 32 32 33 33 33 34 33 33 33 32 32 32 33 33
28 28 28 28 28 28 28 28 28 28 28 29 29 29 30 31 31 31 31 32 32 33 33 33 33 32 32 32 32 32 32 32 33 32 32 33 33 33 32 33 33 32 33
29 29 28 28 29 29 29 29 29 29 29 30 31 31 31 32 32 32 32 32 32 33 33 33 33 32 32 32 33 33 33 32 33 32 32 32 32 32 32 33 32 32 32
30 30 30 29 29 30 30 29 30 30 30 30 31 31 32 32 32 33 32 32 32 32 33 32 32 32 32 32 33 33 33 32 32 32 32 31 31 31 32 32 33 33 33
31 31 31 30 30 30 30 30 30 29 30 31 32 32 32 32 33 33 33 32 32 32 33 32 32 32 32 32 32 33 32 32 32 32 32 31 31 31 31 32 32 33 33
32 32 31 31 31 31 31 31 30 30 30 31 32 32 32 33 33 33 32 32 32 32 32 33 33 32 32 32 32 32 32 32 32 32 32 31 30 30 31 31 32 33 33
32 31 31 31 31 31 30 30 31 31 32 32 32 33 33 33 33 32 32 32 32 33 33 33 33 33 33 33 33 33 33 33 33 32 32 31 30 30 31 31 31 32 33
32 32 32 31 31 31 30 31 32 32 32 32 32 32 32 32 32 32 32 32 33 33 33 33 33 33 33 34 34 34 33 33 33 32 32 31 30 30 30 30 31 32 33
33 33 33 32 32 32 32 32 32 32 32 32 32 32 32 31 31 32 32 33 33 33 33 33 33 33 34 34 34 34 33 33 32 32 31 32 32 31 31 31 31 32 32
34 34 33 33 33 33 33 33 33 33 33 32 32 32 32 31 31 31 31 32 32 33 33 33 33 34 34 34 34 33 33 33 33 32 32 32 32 32 32 32 32 32 32
36 36 35 34 34 34 33 34 33 33 33 33 33 32 32 32 32 32 31 32 33 34 34 34 34 34 34 33 32 32 32 32 32 32 31 31 31 31 32 32 32 33 33
37 36 36 35 35 35 35 34 34 34 34 34 34 33 33 33 33 33 32 32 32 33 33 34 33 33 33 32 31 31 31 31 31 31 31 31 31 31 31 32 32 33 33
38 37 37 36 36 35 35 35 34 34 34 33 33 33 33 33 33 33 32 32 32 32 32 33 33 32 31 31 31 31 31 31 31 31 31 31 31 30 31 31 32 32 32
39 39 38 37 36 36 35 34 34 34 33 32 32 32 33 33 33 33 33 32 31 32 32 32 32 32 31 31 31 31 31 31 31 30 30 30 30 30 30 30 30 31 32
39 39 39 38 37 36 35 34 34 33 33 32 32 32 32 32 33 33 33 32 32 31 31 31 31 32 32 32 32 31 31 31 30 30 30 30 30 29 29 30 30 31 31
40 39 39 38 37 37 36 36 35 34 34 33 32 32 32 32 32 32 32 32 32 32 31 31 31 32 32 31 31 32 31 31 30 30 30 30 30 29 29 29 30 30 30
40 40 40 39 39 38 37 36 35 35 34 33 32 32 32 32 31 31 31 31 32 32 31 31 31 32 32 32 32 32 31 31 31 31 30 29 29 29 29 29 29 29 29
40 40 40 40 39 38 37 36 35 34 34 33 33 32 32 31 31 31 31 31 31 32 31 31 31 32 32 32 31 31 30 30 30 30 29 29 29 28 28 28 28 28 29
40 40 40 40 39 39 38 37 35 34 33 33 33 32 32 31 31 31 31 31 31 31 31 31 31 31 31 30 30 29 29 28 28 28 28 28 28 28 28 27 27 28 28
40 40 39 39 38 38 38 37 36 34 33 33 32 32 32 31 31 31 32 32 32 32 31 30 30 30 30 30 29 29 28 28 27 28 28 27 27 27 28 27 28 28 29
39 40 39 38 37 37 37 37 36 34 33 32 32 31 31 31 31 32 32 32 31 31 30 29 29 29 29 29 29 29 28 27 27 27 27 26 27 27 26 27 27 27 27
39 39 39 39 38 37 37 37 36 35 34 33 32 31 30 30 31 31 32 31 30 30 29 29 29 28 28 28 29 28 27 27 26 27 27 26 27 26 25 25 25 25 25
39 39 39 38 37 37 37 37 36 35 35 34 33 32 31 30 30 30 30 30 30 29 29 29 28 27 28 28 28 28 27 26 26 26 26 26 26 25 24 24 24 24 24
39 39 38 38 38 38 37 36 36 35 35 34 33 33 32 31 30 30 30 30 29 29 29 28 28 28 28 27 27 27 27 26 26 26 26 26 25 24 24 23 23 23 23
39 39 38 38 38 38 37 36 36 35 34 34 33 32 32 31 31 30 30 30 29 29 29 28 28 28 28 27 27 27 27 26 26 26 26 25 24 24 24 24 23 23 23
38 38 38 38 37 37 37 36 35 34 34 33 32 31 31 31 30 31 30 29 29 29 29 29 28 28 27 26 27 27 27 26 26 25 24 24 24 23 23 23 23 23 23
Wind_Direction
264 266 269 272 274 275 276 277 279 281 283 286 288 290 292 294 295 296 297 298 299 300 301 301 300 300 300 299 299 298 296 293 291 289 288 284 282 281 280 280 281 282 281
262 265 268 271 273 274 275 276 278 280 282 285 287 289 291 294 294 296 297 298 298 300 301 301 300 300 300 299 298 298 298 296 293 291 289 286 283 280 279 279 280 281 281
261 264 267 270 272 273 274 275 277 279 281 283 286 289 291 293 294 295 296 297 298 299 301 301 301 300 299 298 298 298 298 296 294 292 290 287 284 281 279 278 280 281 281
261 264 267 269 271 272 274 275 277 279 281 283 286 288 290 292 293 295 295 296 297 299 301 301 302 301 300 299 300 299 300 298 296 293 291 288 285 283 281 280 280 281 281
261 264 266 268 271 272 274 276 278 280 281 284 286 288 290 291 293 295 295 296 296 298 299 300 300 301 300 300 300 300 300 299 298 296 293 290 286 284 282 282 281 281 282
261 263 266 268 269 272 274 275 276 279 282 284 286 288 290 291 293 294 295 295 295 297 299 299 300 300 300 300 300 300 299 299 299 297 294 290 287 285 284 284 283 283 283
262 264 265 267 269 271 273 275 277 279 281 284 287 288 290 291 292 293 293 294 295 297 299 299 299 299 299 299 299 299 299 298 298 297 294 290 289 287 286 285 285 285 284
261 265 267 268 270 271 272 275 277 280 281 283 286 288 290 290 291 292 293 295 296 297 298 299 299 298 298 298 299 298 298 297 296 296 293 290 290 289 287 286 286 286 285
260 263 265 267 269 271 272 275 277 278 281 283 286 287 288 289 290 292 293 294 296 298 299 299 300 300 299 298 298 297 297 297 297 296 293 291 290 290 288 287 287 287 286
260 263 266 268 269 271 272 274 277 278 281 283 285 288 289 289 289 291 292 294 297 299 300 300 300 301 301 301 299 297 296 296 296 296 295 292 290 289 288 287 287 287 287
261 263 266 268 270 272 273 275 277 278 279 281 284 286 288 289 289 290 292 294 296 298 300 301 301 302 302 302 300 299 298 297 296 296 296 295 293 291 289 288 288 288 288
260 262 265 267 270 272 274 275 277 279 280 282 284 286 287 289 290 290 292 293 295 297 299 302 303 304 304 302 301 300 299 298 297 297 297 296 294 293 291 290 289 289 288
260 262 264 267 269 272 274 275 277 279 281 282 283 285 287 289 290 290 291 293 295 297 299 300 302 303 304 303 303 302 301 299 297 297 297 297 295 295 293 292 292 291 290
260 261 264 266 268 270 272 274 276 278 280 282 283 285 286 288 290 290 291 292 294 296 298 299 300 301 303 304 303 302 302 300 297 297 298 298 297 296 295 295 294 294 293
258 260 262 264 266 268 270 272 275 277 279 281 282 284 285 288 289 289 290 291 293 294 296 298 298 300 302 303 302 302 301 300 298 296 297 298 298 298 298 296 296 296 295
258 260 261 262 265 267 269 271 273 276 279 280 282 283 285 287 288 289 290 291 293 295 296 297 298 299 301 302 303 302 301 300 298 298 297 297 298 298 299 300 299 299 297
258 259 260 262 264 266 268 270 273 275 277 279 281 282 283 286 288 289 290 292 293 295 295 296 297 298 300 300 302 303 301 300 300 299 298 297 298 299 300 301 301 302 301
257 259 260 261 263 265 267 269 272 274 276 278 280 281 283 284 287 289 291 292 294 294 295 296 297 297 299 301 302 302 301 301 301 300 299 297 297 298 300 302 302 301 301
257 259 260 261 262 263 265 268 269 272 275 276 278 279 281 284 286 289 290 292 294 295 294 295 296 297 298 300 302 302 301 301 301 302 301 299 298 298 300 302 301 303 302
256 258 260 261 262 263 264 266 268 270 272 274 276 278 280 282 285 288 289 290 292 293 294 295 295 296 298 300 302 302 300 300 301 302 303 302 300 300 300 301 301 303 304
256 257 258 260 262 263 264 265 266 268 270 272 275 278 280 282 284 287 288 289 291 293 293 294 295 297 297 298 301 301 300 300 300 303 303 303 302 303 303 303 302 304 305
255 256 257 259 261 262 264 265 265 267 267 270 273 276 279 281 284 286 287 287 289 291 292 294 295 297 299 300 302 300 300 300 300 302 303 304 304 304 305 305 305 307 308
256 257 257 259 260 262 263 263 264 265 266 268 271 274 277 280 282 284 285 286 288 290 292 293 294 296 297 299 300 299 300 300 300 301 303 305 305 305 305 305 306 308 309
256 256 257 258 259 260 261 262 263 264 265 267 270 272 274 278 280 280 282 284 286 288 289 290 292 293 294 297 298 299 299 299 299 301 303 304 304 305 306 306 306 308 310
256 256 257 258 258 259 259 260 261 263 264 265 268 270 273 276 278 278 279 281 283 285 287 289 291 293 293 294 296 297 298 299 301 303 304 303 303 305 306 307 307 308 311
256 256 256 256 257 257 257 258 259 262 263 264 267 269 273 276 277 277 279 280 282 283 285 287 290 292 292 294 295 295 297 298 300 301 302 303 304 305 306 307 308 310 312
Height
5838 5838 5838 5837 5836 5836 5835 5834 5833 5832 5830 5829 5827 5825 5823 5821 5819 5816 5814 5811 5808 5805 5802 5799 5795 5792 5788 5785 5781 5778 5775 5772 5770 5767 5765 5763 5762 5761 5760 5759 5758 5756 5755
5832 5832 5832 5831 5830 5830 5829 5828 5827 5826 5824 5823 5821 5819 5817 5815 5813 5810 5807 5805 5802 5798 5795 5792 5788 5785 5781 5778 5774 5771 5768 5765 5762 5759 5756 5754 5753 5752 5751 5750 5749 5748 5747
5825 5825 5825 5825 5824 5824 5823 5822 5821 5819 5818 5816 5815 5813 5811 5809 5806 5804 5801 5798 5795 5792 5788 5785 5781 5778 5774 5771 5767 5764 5760 5757 5754 5751 5748 5746 5744 5743 5742 5741 5741 5740 5738
5818 5819 5819 5818 5818 5817 5816 5815 5814 5813 5811 5810 5808 5806 5804 5802 5799 5797 5794 5791 5788 5785 5782 5778 5774 5771 5767 5763 5760 5756 5752 5749 5746 5743 5740 5738 5736 5735 5734 5733 5732 5732 5730
5811 5812 5812 5812 5811 5811 5810 5809 5808 5806 5805 5803 5802 5799 5797 5795 5792 5790 5787 5784 5781 5778 5775 5771 5767 5764 5760 5756 5753 5749 5745 5742 5738 5735 5732 5730 5728 5727 5726 5725 5724 5723 5722
5804 5805 5805 5804 5804 5804 5803 5802 5801 5800 5798 5797 5795 5792 5790 5788 5785 5783 5780 5777 5774 5771 5767 5764 5760 5757 5753 5749 5746 5742 5738 5734 5731 5728 5725 5722 5720 5719 5718 5717 5715 5714 5713
5797 5797 5797 5797 5797 5797 5796 5795 5794 5792 5791 5790 5788 5785 5783 5780 5778 5775 5772 5770 5767 5763 5760 5756 5753 5750 5746 5742 5739 5735 5731 5727 5724 5720 5718 5715 5713 5711 5710 5708 5707 5706 5704
5789 5790 5790 5790 5789 5789 5788 5787 5786 5785 5784 5782 5780 5778 5777 5774 5771 5768 5765 5762 5759 5756 5752 5749 5745 5742 5738 5735 5731 5727 5723 5720 5716 5713 5710 5708 5706 5704 5702 5701 5699 5698 5696
5781 5782 5782 5782 5782 5781 5780 5779 5779 5778 5776 5775 5773 5772 5770 5768 5765 5762 5758 5755 5752 5749 5745 5741 5738 5734 5730 5727 5723 5720 5716 5712 5709 5706 5703 5700 5698 5696 5694 5693 5691 5689 5687
5773 5774 5773 5774 5774 5773 5773 5772 5771 5770 5768 5767 5765 5763 5762 5760 5758 5756 5752 5748 5745 5741 5738 5734 5730 5726 5722 5719 5715 5711 5708 5705 5701 5698 5695 5692 5690 5688 5686 5684 5683 5681 5678
5765 5765 5766 5766 5766 5765 5765 5764 5763 5762 5761 5759 5757 5756 5754 5752 5750 5748 5746 5742 5738 5734 5730 5727 5723 5719 5714 5711 5707 5704 5700 5697 5694 5691 5687 5684 5682 5680 5678 5676 5673 5671 5670
5757 5757 5757 5758 5758 5757 5757 5756 5755 5754 5753 5751 5750 5748 5746 5745 5742 5740 5738 5735 5732 5728 5723 5719 5715 5711 5707 5703 5700 5696 5693 5690 5687 5683 5680 5677 5674 5671 5669 5667 5664 5663 5661
5748 5749 5749 5750 5749 5749 5749 5748 5747 5746 5745 5743 5742 5740 5739 5737 5735 5732 5730 5727 5724 5721 5717 5712 5708 5704 5700 5696 5693 5689 5686 5682 5679 5676 5673 5669 5666 5663 5661 5658 5656 5654 5651
5739 5740 5741 5741 5741 5741 5740 5740 5739 5738 5737 5735 5734 5732 5731 5729 5727 5724 5722 5719 5717 5714 5710 5705 5701 5697 5694 5689 5686 5682 5678 5675 5672 5669 5666 5662 5659 5656 5653 5650 5648 5645 5642
5730 5731 5732 5732 5732 5732 5732 5731 5731 5730 5729 5727 5726 5724 5723 5721 5718 5716 5713 5711 5709 5706 5703 5698 5694 5690 5686 5682 5678 5674 5671 5668 5664 5661 5658 5655 5652 5649 5646 5643 5640 5637 5633
5720 5721 5722 5723 5723 5723 5723 5723 5723 5722 5721 5719 5718 5717 5715 5713 5711 5708 5705 5702 5699 5697 5694 5691 5687 5683 5679 5675 5671 5667 5663 5660 5657 5654 5651 5648 5645 5641 5638 5635 5632 5629 5625
5711 5712 5713 5713 5714 5714 5714 5714 5714 5714 5713 5711 5710 5709 5707 5705 5703 5700 5697 5694 5691 5688 5686 5683 5678 5675 5671 5668 5664 5660 5656 5653 5649 5646 5643 5640 5637 5634 5631 5628 5624 5621 5617
5700 5702 5703 5704 5704 5705 5705 5706 5705 5705 5704 5703 5702 5700 5699 5697 5695 5692 5689 5687 5683 5680 5677 5674 5671 5667 5664 5660 5657 5653 5649 5646 5642 5639 5636 5633 5630 5627 5624 5620 5617 5613 5610
5690 5691 5692 5693 5694 5695 5696 5696 5696 5696 5695 5694 5693 5692 5691 5689 5687 5684 5682 5679 5675 5672 5669 5666 5663 5660 5656 5653 5650 5646 5642 5639 5636 5632 5629 5626 5623 5620 5617 5613 5610 5606 5603
5680 5681 5682 5683 5684 5685 5686 5686 5686 5687 5686 5686 5685 5684 5682 5681 5679 5677 5674 5671 5668 5664 5661 5658 5655 5653 5649 5646 5643 5640 5637 5633 5630 5626 5623 5619 5616 5613 5610 5606 5603 5599 5595
5670 5671 5672 5673 5674 5675 5676 5676 5677 5677 5677 5677 5676 5676 5674 5673 5671 5668 5666 5663 5660 5657 5654 5650 5648 5645 5643 5640 5637 5634 5630 5627 5624 5620 5617 5613 5610 5607 5603 5600 5596 5592 5589
5659 5660 5662 5663 5664 5665 5666 5667 5667 5668 5668 5668 5668 5667 5666 5664 5663 5660 5657 5655 5652 5649 5647 5644 5641 5639 5636 5633 5630 5627 5624 5621 5619 5616 5611 5608 5604 5601 5597 5594 5590 5586 5583
5649 5650 5651 5653 5654 5655 5656 5657 5658 5658 5659 5659 5659 5658 5657 5656 5654 5652 5649 5647 5644 5641 5639 5637 5634 5632 5629 5627 5624 5621 5618 5615 5612 5609 5606 5602 5599 5595 5592 5588 5585 5581 5577
5638 5640 5641 5643 5644 5646 5646 5647 5648 5649 5649 5650 5650 5649 5649 5647 5646 5644 5642 5639 5637 5634 5632 5630 5627 5625 5622 5620 5617 5615 5612 5609 5606 5603 5600 5597 5593 5590 5586 5583 5579 5575 5572
5628 5629 5631 5632 5634 5635 5636 5637 5638 5639 5640 5641 5641 5640 5640 5639 5637 5636 5634 5632 5630 5627 5625 5622 5620 5618 5615 5613 5610 5608 5606 5603 5601 5597 5594 5591 5588 5584 5581 5577 5574 5570 5567
5617 5619 5621 5622 5623 5625 5626 5627 5628 5630 5631 5632 5632 5631 5631 5630 5628 5627 5626 5624 5623 5620 5618 5616 5613 5611 5608 5606 5603 5601 5599 5597 5594 5591 5588 5585 5582 5579 5576 5573 5569 5565 5562